[[{"header":{"parameterUnit":"m.s-1","parameterCategory":1,"la1":30.2991,"la2":30.254,"lo1":-89.0895,"lo2":-89.0444,"dy":0.0017,"dx":0.0017,"nx":28,"ny":28,"refTime":"2024-06-12T03:00:00:Z","depth":0,"parameterNumber":2,"parameterNumberName":"U-component_of_WINDS"},"data":[0,0,0,0,0,0,0,0,0,0,0,0,0,0,0,0,0,0,0,0,0,0,0,0,0,0,0,0,0,0,0,0,0,0,0,0,0,0,0,0,0,0,0,0,0,0,0,0,0,0,0,0,0,0,0,0,0,0,0.078,0.0781,0,0.0808,0.0809,0.0809,0.0807,0.0806,0.0806,0.0805,0.0835,0.0837,0.0838,0,0,0,0,0,0,0,0,0,0,0,0,0,0.0727,0.0728,0.078,0.0781,0.0781,0.0808,0.0809,0.0809,0.0807,0.0806,0.0806,0.0805,0.0835,0.0836,0.0838,0,0,0,0,0,0,0,0,0,0,0,0,0,0.0752,0.0728,0.078,0.0783,0.0784,0.0808,0.0809,0.0809,0.0807,0.0806,0.0806,0.0805,0.0835,0.0836,0.0838,0.0862,0,0,0.0844,0.0844,0,0,0,0,0,0,0,0,0.0751,0.0754,0.0782,0.0783,0.0784,0.0803,0.0801,0.0827,0.0807,0.0798,0.0805,0.0805,0.0825,0.0828,0.0835,0.0863,0.0865,0.0844,0.0845,0.0846,0.0846,0,0,0,0,0,0,0,0.0749,0.0753,0.0791,0.0783,0.0784,0.0784,0.0787,0.0806,0.0815,0.0799,0.0799,0.0802,0.0826,0.0833,0.0835,0.0865,0.0844,0.0845,0.0846,0.0847,0.0916,0.0917,0,0,0,0,0,0,0.0746,0.0751,0.079,0.0792,0.0765,0.0785,0.0788,0.0798,0.0815,0.0817,0.0803,0.0802,0.083,0.0833,0.0836,0.0866,0.0846,0.0847,0.0848,0.0915,0.0916,0.0917,0,0,0,0,0,0,0.0745,0.075,0.0789,0.0772,0.0777,0.0787,0.0797,0.0799,0.0806,0.0818,0.0819,0.0808,0.083,0.0834,0.0856,0.0867,0.0848,0.085,0.0914,0.0916,0.0917,0.0925,0,0,0,0,0,0,0.0744,0.0749,0.0758,0.0772,0.0778,0.0808,0.0798,0.08,0.0809,0.0808,0.0823,0.0825,0.0829,0.0853,0.0858,0.0869,0.0851,0.0913,0.0915,0.0916,0.0924,0.0926,0.0929,0,0,0,0,0,0.0742,0.0759,0.0758,0.0763,0.0789,0.0808,0.0812,0.0816,0.081,0.0819,0.0827,0.0825,0.0865,0.0855,0.086,0.0873,0.0913,0.0915,0.0916,0.0923,0.0926,0.0928,0,0,0,0,0,0,0.0746,0.0761,0.076,0.0783,0.0794,0.0808,0.0819,0.0819,0.0833,0.0832,0.0837,0.084,0.0863,0.087,0.0859,0.0897,0.0888,0.0891,0.0891,0.0895,0.0897,0.0895,0.0853,0,0,0,0,0,0.075,0.0764,0.0776,0.0795,0.0801,0.0809,0.0818,0.082,0.0833,0.0838,0.0847,0.086,0.0875,0.0885,0.09,0.0925,0.0929,0.0936,0.0938,0.094,0.0943,0.0957,0.0961,0.0923,0.0923,0.0923,0,0,0.0757,0.0767,0.0776,0.0796,0.0805,0.0821,0.0813,0.083,0.0841,0.084,0.0861,0.0869,0.0884,0.0907,0.0918,0.0914,0.0954,0.0943,0.0944,0.0945,0.0959,0.0963,0.0966,0.0924,0.0924,0.0923,0,0,0.0779,0.0788,0.0804,0.0814,0.0828,0.0834,0.0838,0.0852,0.0857,0.0878,0.0878,0.0893,0.0919,0.093,0.0939,0.0966,0.0965,0.0971,0.0983,0.0997,0.1,0.1003,0.1013,0.1016,0.0973,0.0973,0.0973,0,0.0787,0.0809,0.0813,0.083,0.0839,0.0839,0.0857,0.0866,0.0885,0.0891,0.0887,0.0921,0.093,0.0957,0.0964,0.0971,0.0976,0.0969,0.0999,0.1002,0.1004,0.1014,0.1018,0.0974,0.0973,0.0973,0.0973,0,0.0818,0.0834,0.0846,0.0864,0.0875,0.0892,0.0899,0.091,0.0912,0.0918,0.0941,0.0953,0.097,0.0977,0.0979,0.1004,0.1001,0.0998,0.0989,0.1009,0.1018,0.1022,0.0974,0.0974,0.0974,0.0974,0,0,0.0843,0.0863,0.0867,0.0876,0.0892,0.0905,0.0923,0.094,0.0949,0.0962,0.0978,0.1001,0.0998,0.1008,0.1011,0.1024,0.1046,0.1019,0.1019,0.1024,0.1075,0.1078,0.1082,0.1045,0.1046,0.1047,0.1074,0,0.0866,0.0896,0.0901,0.0929,0.0944,0.0945,0.096,0.0972,0.0979,0.0994,0.1002,0.1018,0.1013,0.1019,0.1031,0.104,0.1056,0.1038,0.106,0.1061,0.1057,0.1087,0.109,0.1115,0.1078,0.1078,0.1079,0,0.0897,0.0911,0.094,0.0955,0.0961,0.0975,0.0992,0.1006,0.102,0.1024,0.1036,0.1038,0.1058,0.1048,0.1076,0.1063,0.1073,0.1079,0.108,0.1082,0.1071,0.109,0.1123,0.1127,0.1085,0.1084,0.1084,0,0.0912,0.0938,0.0959,0.0966,0.0984,0.0994,0.1002,0.1016,0.1027,0.1042,0.1049,0.1066,0.1075,0.1089,0.1096,0.1088,0.1123,0.1114,0.1128,0.1128,0.1135,0.1134,0.117,0.1141,0.1141,0.1141,0.1141,0,0.0938,0.0956,0.0966,0.0979,0.0999,0.1005,0.1026,0.1034,0.1046,0.1061,0.1063,0.1077,0.1086,0.1102,0.1108,0.113,0.1134,0.1139,0.114,0.1138,0.1138,0.1144,0.1143,0.1142,0.1142,0.1142,0.1141,0,0.0958,0.0966,0.0989,0.1004,0.1009,0.1023,0.1037,0.105,0.1057,0.1076,0.1081,0.1093,0.1111,0.112,0.1143,0.1147,0.1173,0.1173,0.1168,0.1168,0.1182,0.118,0.1223,0.1229,0.1196,0.1196,0.1196,0,0.0974,0.0987,0.1005,0.1015,0.1023,0.1039,0.105,0.1057,0.1068,0.1086,0.1098,0.1116,0.1132,0.1162,0.1173,0.1191,0.1192,0.1205,0.1194,0.1193,0.1192,0.1191,0.1193,0.1207,0.1208,0.1208,0.1208,0,0.1001,0.1005,0.102,0.1037,0.1049,0.1063,0.1077,0.1085,0.1094,0.1107,0.1126,0.1138,0.1162,0.1181,0.1201,0.121,0.1211,0.1212,0.1216,0.1214,0.1211,0.1213,0.1173,0.121,0.121,0.121,0.121,0.121,0.102,0.1032,0.1046,0.1064,0.1075,0.1087,0.1101,0.111,0.1126,0.1146,0.1149,0.117,0.1185,0.1211,0.1221,0.1238,0.1235,0.1241,0.1242,0.1243,0.1244,0.1208,0.1241,0.1241,0.1241,0.1241,0.1241,0,0.1047,0.1057,0.1072,0.1091,0.1105,0.1105,0.112,0.1132,0.115,0.1164,0.1179,0.1202,0.1221,0.1234,0.1253,0.1264,0.1265,0.1269,0.1268,0.127,0.1246,0.124,0.1268,0.1268,0.1268,0.1268,0.1268,0.1268,0.1063,0.1084,0.109,0.1117,0.1127,0.1147,0.1156,0.1168,0.1179,0.1204,0.122,0.1228,0.1242,0.1263,0.128,0.1284,0.1291,0.1295,0.1298,0.1275,0.1272,0.1269,0.1264,0.1296,0.1296,0.1321,0.1321,0.1321]},{"header":{"parameterUnit":"m.s-1","parameterCategory":1,"la1":30.2991,"la2":30.254,"lo1":-89.0895,"lo2":-89.0444,"dy":0.0017,"dx":0.0017,"nx":28,"ny":28,"refTime":"2024-06-12T03:00:00:Z","depth":0,"parameterNumber":3,"parameterNumberName":"V-component_of_WINDS"},"data":[0,0,0,0,0,0,0,0,0,0,0,0,0,0,0,0,0,0,0,0,0,0,0,0,0,0,0,0,0,0,0,0,0,0,0,0,0,0,0,0,0,0,0,0,0,0,0,0,0,0,0,0,0,0,0,0,0,0,-1.5969,-1.597,0,-1.6013,-1.6014,-1.6014,-1.6038,-1.6038,-1.6038,-1.6038,-1.6081,-1.6082,-1.6083,0,0,0,0,0,0,0,0,0,0,0,0,0,-1.5906,-1.5907,-1.5969,-1.597,-1.597,-1.6013,-1.6014,-1.6014,-1.6038,-1.6038,-1.6038,-1.6038,-1.608,-1.6082,-1.6083,0,0,0,0,0,0,0,0,0,0,0,0,0,-1.594,-1.5907,-1.5969,-1.5987,-1.5989,-1.6013,-1.6014,-1.6014,-1.6038,-1.6038,-1.6038,-1.6038,-1.608,-1.6082,-1.6083,-1.6091,0,0,-1.6088,-1.6089,0,0,0,0,0,0,0,0,-1.5938,-1.5942,-1.5984,-1.5986,-1.5988,-1.602,-1.6007,-1.604,-1.6038,-1.6019,-1.6038,-1.6038,-1.606,-1.6064,-1.6072,-1.6093,-1.6095,-1.6088,-1.6089,-1.609,-1.609,0,0,0,0,0,0,0,-1.5936,-1.594,-1.5986,-1.5985,-1.5987,-1.5993,-1.5998,-1.6014,-1.6039,-1.6021,-1.6023,-1.6028,-1.6062,-1.607,-1.6073,-1.6096,-1.6088,-1.609,-1.6091,-1.6091,-1.6131,-1.6131,0,0,0,0,0,0,-1.593,-1.5938,-1.5985,-1.5988,-1.5963,-1.5994,-1.6,-1.601,-1.6039,-1.6043,-1.6028,-1.6029,-1.6067,-1.6071,-1.6074,-1.6089,-1.609,-1.6091,-1.6092,-1.6131,-1.6131,-1.6131,0,0,0,0,0,0,-1.5929,-1.5934,-1.5983,-1.5964,-1.597,-1.5995,-1.6006,-1.6011,-1.6019,-1.6044,-1.6048,-1.6032,-1.6067,-1.6072,-1.6088,-1.609,-1.6092,-1.6094,-1.6131,-1.6131,-1.6131,-1.6116,0,0,0,0,0,0,-1.5927,-1.5934,-1.5937,-1.5964,-1.5971,-1.5996,-1.6006,-1.6011,-1.6022,-1.6024,-1.6049,-1.6053,-1.6068,-1.6086,-1.609,-1.6093,-1.6095,-1.6131,-1.6131,-1.6131,-1.6116,-1.6115,-1.6115,0,0,0,0,0,-1.5925,-1.5929,-1.5937,-1.5942,-1.5976,-1.5996,-1.6,-1.6018,-1.6022,-1.6026,-1.6042,-1.6052,-1.6089,-1.6087,-1.6092,-1.6095,-1.6131,-1.6131,-1.6131,-1.6116,-1.6115,-1.6115,0,0,0,0,0,0,-1.59,-1.5933,-1.5942,-1.5955,-1.5973,-1.6,-1.6005,-1.6016,-1.6032,-1.6033,-1.6054,-1.606,-1.6074,-1.6086,-1.6083,-1.6107,-1.6111,-1.6112,-1.6099,-1.6098,-1.6097,-1.6094,-1.6096,0,0,0,0,0,-1.5897,-1.5911,-1.5938,-1.5948,-1.5956,-1.5979,-1.5989,-1.6001,-1.602,-1.6027,-1.6045,-1.6063,-1.6079,-1.6089,-1.6105,-1.6118,-1.6125,-1.6123,-1.6122,-1.6122,-1.6123,-1.6134,-1.6134,-1.6132,-1.6132,-1.6132,0,0,-1.5889,-1.5908,-1.5916,-1.5943,-1.5959,-1.5974,-1.5985,-1.5999,-1.6011,-1.6029,-1.6047,-1.606,-1.6082,-1.6097,-1.6105,-1.6108,-1.6125,-1.6122,-1.6121,-1.6122,-1.6134,-1.6134,-1.6134,-1.6132,-1.6132,-1.6132,0,0,-1.5882,-1.5898,-1.5909,-1.5925,-1.5949,-1.5965,-1.5967,-1.5994,-1.6004,-1.6022,-1.6038,-1.6052,-1.6078,-1.6094,-1.6105,-1.6109,-1.612,-1.6114,-1.611,-1.612,-1.6121,-1.6121,-1.6125,-1.6125,-1.6114,-1.6114,-1.6114,0,-1.5869,-1.5892,-1.5913,-1.5928,-1.594,-1.596,-1.5972,-1.5986,-1.6014,-1.6022,-1.6025,-1.6062,-1.6077,-1.6098,-1.61,-1.6108,-1.6113,-1.6111,-1.6119,-1.6119,-1.612,-1.6124,-1.6125,-1.6114,-1.6114,-1.6114,-1.6114,0,-1.5877,-1.5893,-1.5899,-1.5927,-1.5941,-1.5954,-1.5977,-1.5988,-1.6001,-1.6016,-1.6036,-1.6056,-1.6078,-1.6084,-1.6094,-1.6107,-1.6109,-1.6115,-1.612,-1.6119,-1.6123,-1.6125,-1.6113,-1.6113,-1.6113,-1.6113,0,0,-1.5854,-1.5897,-1.5899,-1.5913,-1.5943,-1.5956,-1.5971,-1.5994,-1.6004,-1.6023,-1.6038,-1.6062,-1.6069,-1.6082,-1.6095,-1.6104,-1.611,-1.611,-1.6111,-1.6111,-1.6128,-1.6124,-1.6126,-1.6117,-1.6117,-1.6117,-1.6127,0,-1.5854,-1.5883,-1.5903,-1.5924,-1.5941,-1.5961,-1.5975,-1.5995,-1.6011,-1.6028,-1.6045,-1.6063,-1.607,-1.6078,-1.6088,-1.6107,-1.6114,-1.6106,-1.6131,-1.6132,-1.6127,-1.6127,-1.6122,-1.6131,-1.6129,-1.6129,-1.6129,0,-1.5856,-1.5877,-1.5901,-1.5932,-1.594,-1.5951,-1.5976,-1.5992,-1.6016,-1.6027,-1.6043,-1.6058,-1.6076,-1.608,-1.6106,-1.6101,-1.6112,-1.6123,-1.6124,-1.6128,-1.6131,-1.6133,-1.6133,-1.6135,-1.6131,-1.6131,-1.6131,0,-1.584,-1.5874,-1.5894,-1.5905,-1.5941,-1.595,-1.5965,-1.599,-1.6003,-1.6025,-1.6035,-1.6057,-1.607,-1.6087,-1.6108,-1.6108,-1.6133,-1.6138,-1.6144,-1.6144,-1.6149,-1.6148,-1.6153,-1.6154,-1.6154,-1.6154,-1.6154,0,-1.5838,-1.5852,-1.5888,-1.5899,-1.5917,-1.5941,-1.5957,-1.5974,-1.5997,-1.6013,-1.6031,-1.6046,-1.6072,-1.6091,-1.6107,-1.6128,-1.6133,-1.6143,-1.6148,-1.6143,-1.6142,-1.6151,-1.6151,-1.6154,-1.6154,-1.6154,-1.6154,0,-1.5823,-1.5847,-1.587,-1.5904,-1.5913,-1.5924,-1.5953,-1.5967,-1.5985,-1.6005,-1.6012,-1.604,-1.6063,-1.6086,-1.6116,-1.6127,-1.6149,-1.6153,-1.6141,-1.6144,-1.615,-1.615,-1.6162,-1.6165,-1.6162,-1.6162,-1.6162,0,-1.582,-1.5832,-1.5868,-1.5882,-1.5897,-1.5918,-1.5933,-1.5958,-1.5973,-1.6003,-1.6013,-1.6038,-1.6059,-1.6096,-1.6119,-1.6143,-1.615,-1.6152,-1.6153,-1.6149,-1.6152,-1.6152,-1.6154,-1.6152,-1.6152,-1.6152,-1.6151,0,-1.5814,-1.5827,-1.5848,-1.5875,-1.5893,-1.5915,-1.5937,-1.5947,-1.5976,-1.5992,-1.6017,-1.6034,-1.6067,-1.6092,-1.612,-1.6136,-1.6149,-1.6151,-1.6155,-1.615,-1.6143,-1.6149,-1.6141,-1.6151,-1.6151,-1.6151,-1.6151,-1.6151,-1.5807,-1.582,-1.5848,-1.5873,-1.5893,-1.5914,-1.593,-1.5951,-1.5972,-1.6002,-1.6016,-1.6041,-1.6068,-1.6107,-1.6123,-1.6144,-1.6147,-1.6151,-1.6153,-1.6154,-1.6154,-1.6139,-1.6149,-1.6149,-1.6149,-1.6149,-1.6149,0,-1.5803,-1.5824,-1.5846,-1.5879,-1.5898,-1.5911,-1.5937,-1.5953,-1.5976,-1.6,-1.6022,-1.6052,-1.6077,-1.6104,-1.6131,-1.6143,-1.615,-1.615,-1.6149,-1.6154,-1.6148,-1.6144,-1.6144,-1.6144,-1.6144,-1.6144,-1.6144,-1.6144,-1.5804,-1.5828,-1.5844,-1.5879,-1.5899,-1.5926,-1.594,-1.5961,-1.5981,-1.6014,-1.6036,-1.6054,-1.608,-1.611,-1.6134,-1.6142,-1.6152,-1.615,-1.6159,-1.6153,-1.6153,-1.6154,-1.615,-1.6151,-1.6151,-1.6163,-1.6163,-1.6163]}]]